Tracking 17264 objects as of 1-September-2015
HD Live streaming from Space Station

MAQSAT H

Track MAQSAT H now!
10-day predictions
MAQSAT H is classified as:


NORAD ID: 25023
Int'l Code: 1997-066A
Perigee: 551.5 km
Apogee: 26,445.6 km
Inclination: 7.8 °
Period: 464.6 minutes
Semi major axis: 19869 km
RCS: 21.0323 m2 (large)
Launch date: October 30, 1997
Source: European Space Agency (ESA)
Your satellite tracking list
Your tracking list is empty





NASA's NSSDC Master Catalog

Two Line Element Set (TLE):
1 25023U 97066A   15242.88155426 +.00000062 +00000-0 +93580-3 0  9999
2 25023 007.8278 024.4203 6516044 132.0881 012.0952 03.09971095201511

Source of the keplerian elements: AFSPC

N2YO: 228